Preview of NWS' New Version of Forecast
This preview is not operational and should not be used for support decisions.

Regional Weather Roundup (RWR)

Issued by National Weather Service (NWS)

                            
000
ASUS44 KMEG 181910
RWRTN 
TENNESSEE HOURLY STATE WEATHER ROUNDUP
NATIONAL WEATHER SERVICE MEMPHIS TN
100 PM CST MON FEB 18 2019

TNZ002-004-019-021-049-052-054-088>092-182000-
WEST TENNESSEE
  
CITY           SKY/WX    TMP DP  RH WIND       PRES   REMARKS
MEMPHIS INTL   PTSUNNY   42  26  53 N9        30.37F                  
NWS MEMPHIS      N/A     40 N/A N/A MISG        N/A                   
JACKSON        FAIR      40  26  57 N10       30.39F WCI  33          
DYERSBURG      FAIR      37  25  61 N8        30.42F WCI  31          
COVINGTON      SUNNY     37  27  65 N10       30.40F WCI  30          
UNION CITY     SUNNY     37  25  60 NW8       30.40F WCI  31          
PARIS          MOSUNNY   37  25  60 N10       30.38F WCI  30          
SELMER         SUNNY     39  27  60 N9        30.34F WCI  33          
SAVANNAH       SUNNY     41  28  60 N8G17     30.35F                  
$$

TNZ008-025-027-028-033-062-065-066-182000-
NORTH MIDDLE TENNESSEE
  
CITY           SKY/WX    TMP DP  RH WIND       PRES   REMARKS
NASHVILLE      CLOUDY    41  25  53 NW9       30.36F                  
DICKSON        CLEAR     37  23  56 NW10      30.33F WCI  30          
CLARKSVILLE    PTSUNNY   36  23  59 NW8       30.39F WCI  30          
LEBANON        PTCLDY    37  28  70 NW6G13    30.35F WCI  33          
SMYRNA         FAIR      39  28  65 NW9       30.38S WCI  33          
MURFREESBORO   PTCLDY    41  27  56 N13       30.34S                  
COOKEVILLE     MOSUNNY   41  27  56 NW9       30.30F                  
LIVINGSTON     CLOUDY    36  27  69 N9        30.30S WCI  29          
GALLATIN       PTCLDY    39  27  60 VRB6G14   30.40S WCI  35          
CROSSVILLE     FAIR      40  28  62 NW12G17   30.25F WCI  33          
ROCKWOOD       CLEAR     43  30  61 VRB5G12   30.24S                  
$$

TNZ061-075-076-078-094-096-097-182000-
SOUTH MIDDLE TENNESSEE
  
CITY           SKY/WX    TMP DP  RH WIND       PRES   REMARKS
LAWRENCEBURG   CLEAR     41  28  60 N12       30.30F                  
LEWISBURG      CLEAR     43  28  56 NW8G15    30.33S                  
FAYETTEVILLE   SUNNY     43  32  65 N13       30.29F                  
TULLAHOMA      MOSUNNY   41  32  70 N12       30.29F                  
WINCHESTER     SUNNY     43  32  65 N9        30.29F                  
MCMINNVILLE    SUNNY     43  30  61 N6        30.31R                  
COLUMBIA       SUNNY     41  28  60 VRB6G13   30.33F                  
SHELBYVILLE    MOSUNNY   43  32  65 NW14      30.32F                  
$$

TNZ017-018-042-046-047-182000-
NORTHEAST TENNESSEE
  
CITY           SKY/WX    TMP DP  RH WIND       PRES   REMARKS
TRI CITIES     FAIR      48  34  58 W15       30.19F                  
ELIZABETHTON   FAIR      48  32  53 NW10G26   30.17S                  
GREENEVILLE    PTCLDY    46  34  61 W16       30.20R                  
$$

TNZ012-013-036-069-073-074-182000-
CENTRAL EAST TENNESSEE
  
CITY           SKY/WX    TMP DP  RH WIND       PRES   REMARKS
KNOXVILLE      PTSUNNY   49  34  56 W13       30.24F                  
OAK RIDGE      FAIR      46  32  58 VRB6      30.26F                  
DOWNTOWN KNOXV SUNNY     46  32  57 W8G14     30.25F                  
GATLINBURG     SUNNY     50  32  50 W8G15     30.22F                  
MORRISTOWN     MOSUNNY   46  34  61 W8G14     30.21S                  
JACKSBORO      SUNNY     45  28  53 N8G15     30.28S                  
$$

TNZ083-085-099-182000-
SOUTHEAST TENNESSEE
  
CITY           SKY/WX    TMP DP  RH WIND       PRES   REMARKS
CHATTANOOGA    PTSUNNY   50  32  50 N7        30.27F                  
DAYTON         CLEAR     50  32  50 VRB7      30.27S                  
$$

SKY/WX REPORTED AS FAIR MEANS FEW OR NO CLOUDS BELOW
12 THOUSAND FEET.